| time (UTC) | temp F | wind direction | speed MPH | gust MPH | rain 1hr in | rain 24hr in | rain mn in | humidity % | barometer mb |
| 20260906223055 | 86 | 134 | 5.0 | 17.0 | 0.00 | 0.00 | 0.00 | 22 | 1019.3 |
| 20260906221554 | 87 | 306 | 5.0 | 10.0 | 0.00 | 0.00 | 0.00 | 22 | 1019.5 |
| 20260906220052 | 87 | 195 | 2.0 | 11.0 | 0.00 | 0.00 | 0.00 | 22 | 1019.7 |
| 20260906214601 | 86 | 176 | 4.0 | 14.0 | 0.00 | 0.00 | 0.00 | 23 | 1019.9 |
| 20260906213044 | 88 | 142 | 4.0 | 9.0 | 0.00 | 0.00 | 0.00 | 22 | 1020.2 |
| 20260906211553 | 87 | 256 | 7.0 | 16.0 | 0.00 | 0.00 | 0.00 | 22 | 1020.4 |
| 20260906210109 | 89 | 251 | 3.0 | 16.0 | 0.00 | 0.00 | 0.00 | 22 | 1020.6 |
| 20260906204555 | 89 | 265 | 3.0 | 12.0 | 0.00 | 0.00 | 0.00 | 22 | 1021.2 |
| 20260906203050 | 88 | 163 | 4.0 | 12.0 | 0.00 | 0.00 | 0.00 | 21 | 1021.4 |
| 20260906201552 | 89 | 167 | 6.0 | 10.0 | 0.00 | 0.00 | 0.00 | 21 | 1021.5 |
| 20260906200046 | 90 | 263 | 1.0 | 11.0 | 0.00 | 0.00 | 0.00 | 21 | 1021.7 |
| 20260906194552 | 88 | 161 | 5.0 | 12.0 | 0.00 | 0.00 | 0.00 | 21 | 1021.8 |
| 20260906193051 | 88 | 241 | 2.0 | 10.0 | 0.00 | 0.00 | 0.00 | 22 | 1021.9 |
| 20260906191549 | 87 | 84 | 5.0 | 10.0 | 0.00 | 0.00 | 0.00 | 23 | 1022.1 |
| 20260906190053 | 86 | 100 | 5.0 | 8.0 | 0.00 | 0.00 | 0.00 | 24 | 1022.3 |
| 20260906184621 | 87 | 218 | 3.0 | 10.0 | 0.00 | 0.00 | 0.00 | 23 | 1022.5 |
| 20260906183053 | 86 | 125 | 2.0 | 11.0 | 0.00 | 0.00 | 0.00 | 24 | 1022.9 |
| 20260906181551 | 84 | 159 | 3.0 | 11.0 | 0.00 | 0.00 | 0.00 | 26 | 1023.2 |
| 20260906180056 | 84 | 226 | 3.0 | 10.0 | 0.00 | 0.00 | 0.00 | 26 | 1023.3 |
| 20260906174552 | 83 | 186 | 5.0 | 13.0 | 0.00 | 0.00 | 0.00 | 28 | 1023.6 |
| 20260906173058 | 82 | 151 | 2.0 | 6.0 | 0.00 | 0.00 | 0.00 | 30 | 1023.6 |
| 20260906171550 | 80 | 128 | 1.0 | 9.0 | 0.00 | 0.00 | 0.00 | 31 | 1023.7 |
| 20260906170054 | 78 | 141 | 1.0 | 9.0 | 0.00 | 0.00 | 0.00 | 33 | 1023.7 |
| 20260906164551 | 77 | 151 | 2.0 | 8.0 | 0.00 | 0.00 | 0.00 | 34 | 1023.9 |
| 20260906163051 | 76 | 86 | 4.0 | 9.0 | 0.00 | 0.00 | 0.00 | 34 | 1024.0 |
| 20260906161550 | 74 | 263 | 2.0 | 8.0 | 0.00 | 0.00 | 0.00 | 37 | 1023.9 |
| 20260906160046 | 72 | 95 | 0.0 | 5.0 | 0.00 | 0.00 | 0.00 | 39 | 1023.9 |
| 20260906154555 | 70 | 155 | 1.0 | 6.0 | 0.00 | 0.00 | 0.00 | 43 | 1023.9 |
| 20260906153053 | 68 | 115 | 0.0 | 3.0 | 0.00 | 0.00 | 0.00 | 46 | 1023.9 |
| 20260906151552 | 66 | 0 | 1.0 | 3.0 | 0.00 | 0.00 | 0.00 | 47 | 1023.9 |
| 20260906150057 | 65 | 0 | 0.0 | 4.0 | 0.00 | 0.00 | 0.00 | 48 | 1023.9 |
| 20260906144553 | 64 | 145 | 0.0 | 2.0 | 0.00 | 0.00 | 0.00 | 49 | 1023.8 |
| 20260906143050 | 64 | 0 | 1.0 | 3.0 | 0.00 | 0.00 | 0.00 | 51 | 1023.7 |
| 20260906141550 | 62 | 0 | 0.0 | 2.0 | 0.00 | 0.00 | 0.00 | 53 | 1023.5 |
| 20260906140051 | 62 | 0 | 0.0 | 1.0 | 0.00 | 0.00 | 0.00 | 53 | 1023.4 |
| 20260906134545 | 62 | 0 | 0.0 | 1.0 | 0.00 | 0.00 | 0.00 | 50 | 1023.3 |
| 20260906133056 | 62 | 0 | 0.0 | 1.0 | 0.00 | 0.00 | 0.00 | 50 | 1023.2 |
| 20260906131550 | 62 | 0 | 0.0 | 3.0 | 0.00 | 0.00 | 0.00 | 49 | 1023.0 |
| 20260906130057 | 63 | 346 | 0.0 | 3.0 | 0.00 | 0.00 | 0.00 | 49 | 1022.8 |
| 20260906124547 | 64 | 0 | 0.0 | 1.0 | 0.00 | 0.00 | 0.00 | 47 | 1022.7 |
| 20260906123054 | 64 | 0 | 0.0 | 2.0 | 0.00 | 0.00 | 0.00 | 47 | 1022.7 |
| 20260906121604 | 63 | 271 | 0.0 | 3.0 | 0.00 | 0.00 | 0.00 | 48 | 1022.7 |
| 20260906120104 | 63 | 0 | 0.0 | 2.0 | 0.00 | 0.00 | 0.00 | 50 | 1022.7 |
| 20260906114544 | 62 | 0 | 0.0 | 2.0 | 0.00 | 0.00 | 0.00 | 51 | 1022.8 |
| 20260906113056 | 62 | 53 | 0.0 | 2.0 | 0.00 | 0.00 | 0.00 | 53 | 1022.7 |
| 20260906111549 | 61 | 30 | 0.0 | 1.0 | 0.00 | 0.00 | 0.00 | 54 | 1022.6 |
| 20260906110049 | 61 | 0 | 0.0 | 2.0 | 0.00 | 0.00 | 0.00 | 54 | 1022.6 |
| 20260906104545 | 62 | 57 | 1.0 | 2.0 | 0.00 | 0.00 | 0.00 | 53 | 1022.6 |
| 20260906103052 | 63 | 0 | 0.0 | 1.0 | 0.00 | 0.00 | 0.00 | 52 | 1022.7 |
| 20260906101553 | 64 | 0 | 0.0 | 0.0 | 0.00 | 0.00 | 0.00 | 50 | 1022.5 |
| 20260906100049 | 65 | 360 | 0.0 | 2.0 | 0.00 | 0.00 | 0.00 | 50 | 1022.4 |
| 20260906094544 | 66 | 0 | 0.0 | 1.0 | 0.00 | 0.00 | 0.00 | 48 | 1022.4 |
| 20260906093052 | 67 | 0 | 0.0 | 1.0 | 0.00 | 0.00 | 0.00 | 45 | 1022.3 |
| 20260906091549 | 68 | 0 | 0.0 | 1.0 | 0.00 | 0.00 | 0.00 | 44 | 1022.2 |
| 20260906090052 | 69 | 0 | 0.0 | 3.0 | 0.00 | 0.00 | 0.00 | 41 | 1022.2 |
| 20260906084556 | 69 | 350 | 0.0 | 6.0 | 0.00 | 0.00 | 0.00 | 40 | 1022.2 |
| 20260906083044 | 69 | 329 | 0.0 | 3.0 | 0.00 | 0.00 | 0.00 | 41 | 1022.3 |
| 20260906081553 | 68 | 23 | 1.0 | 4.0 | 0.00 | 0.00 | 0.00 | 42 | 1022.4 |
| 20260906080052 | 68 | 0 | 1.0 | 3.0 | 0.00 | 0.00 | 0.00 | 44 | 1022.5 |
| 20260906074550 | 69 | 52 | 0.0 | 3.0 | 0.00 | 0.00 | 0.00 | 44 | 1022.5 |
| 20260906073043 | 69 | 346 | 1.0 | 3.0 | 0.00 | 0.00 | 0.00 | 44 | 1022.7 |
| 20260906071553 | 69 | 40 | 1.0 | 4.0 | 0.00 | 0.00 | 0.00 | 44 | 1022.8 |
| 20260906070051 | 68 | 223 | 0.0 | 3.0 | 0.00 | 0.00 | 0.00 | 45 | 1022.8 |
| 20260906064549 | 68 | 0 | 1.0 | 2.0 | 0.00 | 0.00 | 0.00 | 46 | 1022.9 |
| 20260906063056 | 68 | 0 | 0.0 | 2.0 | 0.00 | 0.00 | 0.00 | 45 | 1023.0 |
| 20260906061601 | 69 | 320 | 0.0 | 2.0 | 0.00 | 0.00 | 0.00 | 44 | 1022.9 |
| 20260906060057 | 69 | 36 | 0.0 | 2.0 | 0.00 | 0.00 | 0.00 | 44 | 1022.9 |
| 20260906054549 | 69 | 0 | 0.0 | 2.0 | 0.00 | 0.00 | 0.00 | 44 | 1022.8 |
| 20260906053044 | 69 | 0 | 0.0 | 2.0 | 0.00 | 0.00 | 0.00 | 43 | 1022.7 |
| 20260906051606 | 70 | 5 | 0.0 | 2.0 | 0.00 | 0.00 | 0.00 | 42 | 1022.7 |
| 20260906050049 | 70 | 0 | 0.0 | 1.0 | 0.00 | 0.00 | 0.00 | 42 | 1022.5 |
| 20260906044546 | 71 | 0 | 0.0 | 1.0 | 0.00 | 0.00 | 0.00 | 42 | 1022.4 |
| 20260906043042 | 72 | 0 | 0.0 | 1.0 | 0.00 | 0.00 | 0.00 | 40 | 1022.4 |
| 20260906041544 | 72 | 0 | 0.0 | 2.0 | 0.00 | 0.00 | 0.00 | 39 | 1022.4 |
| 20260906040052 | 73 | 0 | 0.0 | 4.0 | 0.00 | 0.00 | 0.00 | 38 | 1022.1 |
| 20260906034550 | 73 | 308 | 0.0 | 3.0 | 0.00 | 0.00 | 0.00 | 38 | 1021.8 |
| 20260906033056 | 74 | 222 | 0.0 | 4.0 | 0.00 | 0.00 | 0.00 | 37 | 1021.6 |
| 20260906031550 | 74 | 0 | 0.0 | 3.0 | 0.00 | 0.00 | 0.00 | 37 | 1021.5 |
| 20260906030050 | 74 | 259 | 0.0 | 2.0 | 0.00 | 0.00 | 0.00 | 37 | 1021.3 |
| 20260906024545 | 75 | 0 | 0.0 | 4.0 | 0.00 | 0.00 | 0.00 | 36 | 1021.1 |
| 20260906023050 | 75 | 0 | 0.0 | 2.0 | 0.00 | 0.00 | 0.00 | 36 | 1020.9 |
| 20260906021551 | 76 | 0 | 0.0 | 2.0 | 0.00 | 0.00 | 0.00 | 36 | 1020.9 |
| 20260906020049 | 77 | 0 | 0.0 | 2.0 | 0.00 | 0.00 | 0.00 | 36 | 1020.9 |
| 20260906014604 | 78 | 0 | 0.0 | 1.0 | 0.00 | 0.00 | 0.00 | 37 | 1020.8 |
| 20260906013054 | 79 | 0 | 0.0 | 1.0 | 0.00 | 0.00 | 0.00 | 37 | 1020.6 |
| 20260906011554 | 81 | 0 | 0.0 | 0.0 | 0.00 | 0.00 | 0.00 | 36 | 1020.7 |
| 20260906004552 | 81 | 0 | 0.0 | 0.0 | 0.00 | 0.00 | 0.00 | 35 | 1020.6 |
| 20260906003050 | 82 | 0 | 0.0 | 0.0 | 0.00 | 0.00 | 0.00 | 37 | 1020.6 |
| 20260906001549 | 82 | 0 | 0.0 | 1.0 | 0.00 | 0.00 | 0.00 | 36 | 1020.7 |
| 20260906000057 | 83 | 80 | 0.0 | 3.0 | 0.00 | 0.00 | 0.00 | 36 | 1020.6 |
| 20260905234555 | 82 | 0 | 0.0 | 3.0 | 0.00 | 0.00 | 0.00 | 37 | 1020.6 |
| 20260905233051 | 81 | 0 | 0.0 | 2.0 | 0.00 | 0.00 | 0.00 | 39 | 1020.6 |
| 20260905231548 | 81 | 0 | 0.0 | 1.0 | 0.00 | 0.00 | 0.00 | 40 | 1020.6 |
| 20260905230104 | 80 | 0 | 0.0 | 1.0 | 0.00 | 0.00 | 0.00 | 40 | 1020.6 |
| 20260905224552 | 80 | 0 | 0.0 | 2.0 | 0.00 | 0.00 | 0.00 | 43 | 1020.8 |